Regional Weather Roundup
Issued by NWS

Home | Current Version | Previous Version | Graphics & Text | Print | Product List | Glossary Off
Versions: 1 2 3 4 5 6 7 8 9 10 11 12 13 14 15 16 17 18 19 20 21 22 23 24 25 26 27 28 29 30 31 32 33 34 35 36 37 38 39 40 41 42 43 44 45 46 47 48 49 50

000
ASUS43 KLSX 012107
RWRMO

WEATHER SUMMARY FOR MISSOURI
NATIONAL WEATHER SERVICE SPRINGFIELD MO
400 PM CDT FRI AUG 01 2014

NOTE: "FAIR" INDICATES FEW OR NO CLOUDS BELOW 12,000 FEET WITH NO
       SIGNIFICANT WEATHER AND/OR OBSTRUCTIONS TO VISIBILITY.
       CURRENT SKY AND/OR WEATHER CONDITIONS ARE NOT AVAILABLE FOR
       CHILLICOTHE AND FARMINGTON.

MOZ001>031-035>038-043-044-053-054-012200-
...NORTHERN AND WESTERN MISSOURI...

CITY           SKY/WX    TMP DP  RH WIND       PRES   REMARKS
KANSAS CTY INT PTSUNNY   84  61  45 SE7       30.07F
KANSAS C DTWN  PTSUNNY   85  60  42 E5        30.05F
LEE`S SUMMIT   MOSUNNY   83  59  44 VRB6      30.07F
ST JOSEPH      PTSUNNY   84  61  45 VRB3      30.07S
CHILLICOTHE      N/A     84  59  42 NW3       30.07F
KIRKSVILLE     PTSUNNY   82  62  50 N12       30.08S

$$
MOZ066>068-077>081-088>096-101>105-012200-
...SOUTHWEST MISSOURI...

CITY           SKY/WX    TMP DP  RH WIND       PRES   REMARKS
SPRINGFIELD    SUNNY     83  57  41 MISG      30.06F
JOPLIN         MOSUNNY   85  59  41 CALM      30.06F

$$
MOZ032>034-039>042-045>050-055>058-069>072-012200-
...CENTRAL MISSOURI...

CITY           SKY/WX    TMP DP  RH WIND       PRES   REMARKS
COLUMBIA       PTSUNNY   79  60  52 E5        30.08S
JEFFERSON CITY PTSUNNY   78  61  55 NE7       30.06F
ROLLA          PTSUNNY   79  60  52 NE13      30.06S
SEDALIA        SUNNY     84  62  47 VRB5      30.08F
WHITEMAN AFB   SUNNY     83  48  29 VRB3      30.07S
OSAGE BEACH      N/A     82  64  54 NE9       30.06S

$$
MOZ051-052-059>065-012200-
...EAST CENTRAL MISSOURI...

CITY           SKY/WX    TMP DP  RH WIND       PRES   REMARKS
ST LOUIS INTL  CLOUDY    76  68  76 NW8       30.07S
SPIRIT OF STL  RAIN      70  66  87 CALM      30.06S FOG
ST CHARLES     CLOUDY    78  67  68 NW7       30.05F

$$
MOZ072>076-082>087-097>100-106>115-012200-
...SOUTH CENTRAL AND SOUTHEAST MISSOURI...

CITY           SKY/WX    TMP DP  RH WIND       PRES   REMARKS
CAPE GIRARDEAU PTSUNNY   84  64  50 S6        30.04S
FARMINGTON     SUNNY     86  54  32 NE3       30.06F
POPLAR BLUFF   SUNNY     83  62  49 VRB6      30.03F
WEST PLAINS    MOSUNNY   80  63  55 VRB5      30.08F

$$


USA.gov is the U.S. government's official web portal to all federal, state and local government web resources and services.